Location: Voyageurs National Park
(48.5020°N, 92.9292°W)
Time: 04:01:36
(UTC-06:00)

SJ-12 - Pass Details

Date: 19 January 2018
Orbit: 571 x 586 km, 97.6° (Epoch: 19 February)

Event Time Altitude Azimuth Distance (km) Brightness Sun altitude
Rises 06:13:27 0° 12° (NNE) 2,804 7.4 -16.5°
Reaches altitude 10° 06:15:37 10° 11° (N) 1,902 6.5 -16.2°
Maximum altitude 06:19:44 81° 286° (WNW) 594 3.8 -15.5°
Drops below altitude 10° 06:23:51 10° 198° (SSW) 1,895 6.5 -14.8°
Sets 06:26:00 0° 198° (SSW) 2,792 7.4 -14.5°
